Tracking 18816 objects as of 17-October-2017
HD Live streaming from Space Station
objects crossing your sky now

COSMOS 2251 DEB

Track COSMOS 2251 DEB now!
10-day predictions


NORAD ID: 34473
Int'l Code: 1993-036TS
Perigee: 728.9 km
Apogee: 766.7 km
Inclination: 74.0 °
Period: 99.6 minutes
Semi major axis: 7118 km
RCS: 0.0156 m2 (small)
Launch date: June 16, 1993
Source: Commonwealth of Independent States (former USSR) (CIS)
Launch site: PLESETSK MISSILE AND SPACE COMPLEX (PKMTR)

Note: This is SATELLITE DEBRIS
aabbcc
Your satellite tracking list
Your tracking list is empty





NASA's NSSDC Master Catalog

Two Line Element Set (TLE):
1 34473U 93036TS  17290.53010834  .00001256  00000-0  36279-3 0  9999
2 34473  74.0318 310.5747 0026564 354.6567 159.8237 14.45424523454835
Source of the keplerian elements: AFSPC